Location: Allaines
(49.9632°N, 2.9458°E)
Time: 12:07:35
(UTC+00:00)

Cosmos 1741 Rocket - Pass Details

Date: 09 April 2020
Orbit: 762 x 782 km, 74.0° (Epoch: 27 May)

Event Time Altitude Azimuth Distance (km) Brightness Sun altitude
Exits shadow 21:21:07 15° 214° (SW) 2,035 6.0 -23.7°
Maximum altitude 21:25:37 68° 296° (WNW) 842 4.3 -24.1°
Drops below altitude 10° 21:30:57 10° 20° (NNE) 2,348 6.9 -24.7°
Sets 21:33:22 0° 23° (NNE) 3,278 7.7 -24.9°
